This demonstration page uses our WeatherBlox Daily Observations layout. Learn more.

Left ArrowRight Arrow

39.01783, -85.05884

Hourly Observations for November 16, 2020

Temp ( °F °C ) Dew Point ( °F °C ) Humidity (%) Winds ( mph kmh ) Pressure ( in mb ) Visibility ( mi km ) Precip ( " mm )
12:52 am 00:52 Clear 43 6.1 29 -1.7 58 58 WSW 10 17 30.09 1019 10 16.0934 0 0
1:52 am 01:52 Clear 41 5 28 -2.2 60 60 WSW 8 13 30.11 1020 10 16.0934 0 0
2:52 am 02:52 Clear 39 3.9 27 -2.8 62 62 SW 8 13 30.13 1020 10 16.0934 0 0
3:52 am 03:52 Clear 39 3.9 27 -2.8 62 62 WSW 8 13 30.13 1020 10 16.0934 0 0
4:52 am 04:52 Clear 38 3.3 26 -3.3 62 62 WSW 7 11 30.14 1021 10 16.0934 0 0
5:52 am 05:52 Clear 38 3.3 26 -3.3 62 62 WSW 8 13 30.17 1022 10 16.0934 0 0
6:52 am 06:52 Clear 36 2.2 26 -3.3 67 67 SW 8 13 30.18 1022 10 16.0934 0 0
7:52 am 07:52 Sunny 37 2.8 26 -3.3 65 65 SW 8 13 30.19 1022 10 16.0934 0 0
8:52 am 08:52 Sunny 40 4.4 27 -2.8 60 60 WSW 9 15 30.22 1023 10 16.0934 0 0
9:52 am 09:52 Sunny 43 6.1 27 -2.8 53 53 WSW 13 20 30.23 1024 10 16.0934 0 0
10:52 am 10:52 Sunny 46 7.8 28 -2.2 50 50 W 14 22 30.24 1024 10 16.0934 0 0
11:52 am 11:52 Sunny 49 9.4 26 -3.3 41 41 WSW 13 20 30.23 1024 10 16.0934 0 0
12:52 pm 12:52 Sunny 51 10.6 25 -3.9 36 36 WSW 13 20 30.2 1023 10 16.0934 0 0
1:52 pm 13:52 Sunny 53 11.7 24 -4.4 32 32 WSW 15 24 30.18 1022 10 16.0934 0 0
2:52 pm 14:52 Sunny 54 12.2 23 -5 30 30 W 13 20 30.15 1021 10 16.0934 0 0
3:52 pm 15:52 Partly Cloudy 54 12.2 23 -5 30 30 WSW 8 13 30.13 1020 10 16.0934 0 0
4:52 pm 16:52 Partly Cloudy 52 11.1 22 -5.6 31 31 SSW 10 17 30.12 1020 10 16.0934 0 0
5:52 pm 17:52 Mostly Clear 48 8.9 24 -4.4 39 39 S 9 15 30.09 1019 10 16.0934 0 0
6:52 pm 18:52 Mostly Clear 47 8.3 23 -5 39 39 SSW 7 11 30.1 1019 10 16.0934 0 0
7:52 pm 19:52 Clear 46 7.8 24 -4.4 42 42 SSW 9 15 30.1 1019 10 16.0934 0 0
8:52 pm 20:52 Partly Cloudy 46 7.8 25 -3.9 44 44 SSW 9 15 30.1 1019 10 16.0934 0 0
9:52 pm 21:52 Mostly Cloudy 47 8.3 25 -3.9 42 42 SSW 12 19 30.08 1019 10 16.0934 0 0
10:52 pm 22:52 Mostly Cloudy 47 8.3 25 -3.9 42 42 SW 9 15 30.08 1019 10 16.0934 0 0
11:52 pm 23:52 Mostly Clear 46 7.8 25 -3.9 44 44 SW 10 17 30.07 1018 10 16.0934 0 0

Powered by AerisWeather